Content
SEND FEEDBACK

Daily
Averages
Monthly
Summary
United States of America

NAPERVILLE, ILLINOIS


Home > North America > United States > Illinois
Elevation: 687 feet     Latitude: 41 49N     Longitude: 088 04W

WEATHER
 
SELECT A DAY
Number of Records: 196,575;   Date Range: 1/1/95 - 7/29/14
 
SHARE

PRINT THIS DATA

[ ← Previous Day ]
WEATHER ALMANAC - FEBRUARY 1, 2013
[ Next Day → ]
[ °C ]   °F
Weather ElementAverageHighLow
Temperature8.9 °F14 °F (11:18 pm)1 °F (6:51 am)
Dewpoint1.3 °F10.9 °F (11:51 pm)-8 °F (6:51 am)
Humidity71.7 %92 % (10:47 pm)61 % (12:51 pm)
Barometer30.27 in30.37 in (10:51 am)30.16 in (11:28 pm)
Wind Speed11.8 mph19.6 mph (3:51 am)
Wind Gust25.3 mph (3:51 am)
Weather ElementAverage
Visibility7.8 mi
Wind DirectionWSW (251.4 °)

Weather ElementTotal
Precipitation0.04 in
Heating Degree Days57.5 (Base 65)
Averaged from 29 records on February 1, 2013
WEATHER CONDITIONS BREAKOUT
WIND DIRECTION BREAKOUT
WEATHER BY HOUR - FEBRUARY 1, 2013
[ °C ]   °F
Local TimeTemperatureDewpointHumidityBarometerVisibilityWind DirectionWind SpeedGust SpeedPrecipitationEventsConditions
1:51 AM5.0 °F-4.0 °F66 %30.22 in10.0 miWNW (290°)15.0 mph19.6 mphPartly Cloudy
2:51 AM4.1 °F-4.9 °F66 %30.25 in10.0 miWNW (290°)17.3 mph21.9 mphPartly Cloudy
3:51 AM4.1 °F-4.9 °F66 %30.27 in10.0 miWest (280°)19.6 mph25.3 mphPartly Cloudy
4:51 AM3.0 °F-6.0 °F66 %30.29 in10.0 miWest (280°)18.4 mphPartly Cloudy
5:51 AM1.9 °F-7.1 °F66 %30.31 in10.0 miWNW (290°)12.7 mphPartly Cloudy
6:51 AM1.0 °F-8.0 °F66 %30.33 in10.0 miWest (270°)12.7 mph19.6 mphPartly Cloudy
7:51 AM1.0 °F-7.1 °F69 %30.34 in10.0 miWest (280°)13.8 mphPartly Cloudy
8:51 AM1.9 °F-6.0 °F69 %30.36 in10.0 miWest (270°)13.8 mphPartly Cloudy
9:51 AM3.0 °F-4.9 °F70 %30.36 in10.0 miWest (260°)15.0 mphPartly Cloudy
10:51 AM6.1 °F-4.0 °F63 %30.37 in10.0 miWSW (250°)15.0 mphPartly Cloudy
11:51 AM6.8 °F-2.2 °F67 %30.32 in10.0 miWest (260°)16.1 mphPartly Cloudy
12:51 PM10.9 °F0.0 °F61 %30.34 in10.0 miWSW (250°)13.8 mph18.4 mphPartly Cloudy
1:51 PM10.9 °F0.0 °F61 %30.32 in10.0 miWest (270°)17.3 mph23.0 mphScattered Clouds
2:51 PM10.9 °F0.0 °F61 %30.30 in10.0 miWSW (240°)17.3 mph21.9 mphScattered Clouds
3:51 PM10.9 °F0.0 °F61 %30.30 in10.0 miWSW (240°)12.7 mph20.7 mphScattered Clouds
4:51 PM10.9 °F1.0 °F64 %30.30 in10.0 miWSW (240°)13.8 mphScattered Clouds
5:51 PM10.9 °F1.9 °F67 %30.29 in10.0 miWSW (240°)11.5 mphScattered Clouds
6:51 PM10.9 °F3.0 °F70 %30.28 in10.0 miWSW (240°)12.7 mphOvercast
7:51 PM12.2 °F3.2 °F67 %30.20 in10.0 miWSW (250°)11.5 mphOvercast
8:51 PM12.9 °F3.9 °F67 %30.24 in10.0 miWSW (240°)11.5 mphOvercast
9:35 PM12.2 °F6.8 °F79 %30.19 in4.0 miWSW (250°)9.2 mph0.00 inSnowLight Snow
9:51 PM12.9 °F7.0 °F77 %30.24 in3.0 miWest (260°)6.9 mph0.00 inSnowLight Snow
10:23 PM12.2 °F8.6 °F85 %30.18 in2.5 miWSW (240°)3.5 mph0.00 inSnowLight Snow
10:47 PM12.2 °F10.4 °F92 %30.18 in2.0 miWSW (240°)4.6 mph0.01 inSnowLight Snow
10:51 PM12.9 °F10.0 °F88 %30.22 in2.0 miSW (230°)4.6 mph0.01 inSnowLight Snow
11:18 PM14.0 °F10.4 °F86 %30.17 in3.0 miSSW (210°)6.9 mph0.00 inSnowLight Snow
11:28 PM14.0 °F10.4 °F86 %30.16 in4.0 miSSW (210°)5.8 mph0.00 inSnowLight Snow
11:40 PM14.0 °F10.4 °F86 %30.16 in2.5 miSSW (210°)5.8 mph0.01 inSnowLight Snow
11:51 PM14.0 °F10.9 °F88 %30.20 in2.0 miSSW (210°)4.6 mph0.01 inSnowLight Snow
Hourly data recorded from KORD, located miles away from Naperville, Illinois







STORIES FROM OUR PARTNERS